Simultaneous Nadir Overpasses (SNOs) Predictions

Prediction of SNOs between METOP-C and LANDSAT-8 Satellite Orbit:

Table of predicted SNOs for the next 14.0 days since TLE Epoch: 8/29/2025
Index Date (METOP-C) Time (METOP-C) Lat,Lon (METOP-C) SZA (METOP-C ) Date (LANDSAT-8) Time (LANDSAT-8) Lat,Lon (LANDSAT-8) SZA (LANDSAT-8 ) Distance(km) Time Diff (sec)
1 09/01/2025 10:11:39 81.11, 66.78 75.07 09/01/2025 10:12:12 81.11, 66.80 75.09 0.74 33
2 09/01/2025 11:02:18 -81.13,-125.12 104.83 09/01/2025 11:01:38 -81.13,-125.24 104.86 1.99 40
3 09/04/2025 05:46:03 81.10, 132.94 76.09 09/04/2025 05:46:29 81.10, 133.13 76.12 3.23 26
4 09/04/2025 06:36:42 -81.12, -58.96 103.81 09/04/2025 06:35:55 -81.13, -58.90 103.82 1.12 47
5 09/07/2025 01:20:25 81.11,-160.21 77.21 09/07/2025 01:20:45 81.11,-160.36 77.20 2.60 20
6 09/07/2025 02:11:05 -81.13, 7.51 102.73 09/07/2025 02:10:11 -81.13, 7.64 102.74 2.33 54
7 09/09/2025 20:54:48 81.10, -94.18 78.24 09/09/2025 20:55:00 81.10, -94.01 78.26 2.92 12
8 09/09/2025 21:45:27 -81.13, 73.91 101.65 09/09/2025 21:44:26 -81.13, 74.01 101.67 1.62 61
9 09/12/2025 16:29:10 81.11, -27.47 79.37 09/12/2025 16:29:15 81.11, -27.47 79.37 0.11 5



Historial Predications of SNOs between METOP-C and LANDSAT-8
